| time (UTC) | temp F | wind direction | speed MPH | gust MPH | rain 1hr in | rain 24hr in | rain mn in | humidity % | barometer mb |
| 20260903064559 | 58 | 84 | 0.0 | 0.0 | 0.00 | 0.00 | 0.00 | 95 | 1014.7 |
| 20260903063103 | 58 | 85 | 0.0 | 0.0 | 0.00 | 0.00 | 0.00 | 95 | 1014.8 |
| 20260903061544 | 58 | 83 | 0.0 | 0.0 | 0.00 | 0.00 | 0.00 | 95 | 1015.0 |
| 20260903054553 | 59 | 123 | 0.0 | 0.0 | 0.00 | 0.00 | 0.00 | 94 | 1015.5 |
| 20260903053110 | 59 | 175 | 0.0 | 0.0 | 0.00 | 0.00 | 0.00 | 93 | 1015.8 |
| 20260903051557 | 59 | 144 | 0.0 | 0.0 | 0.00 | 0.00 | 0.00 | 92 | 1016.1 |
| 20260903050044 | 59 | 43 | 0.0 | 0.0 | 0.00 | 0.00 | 0.00 | 92 | 1016.1 |
| 20260903044551 | 59 | 29 | 0.0 | 0.0 | 0.00 | 0.00 | 0.00 | 91 | 1016.0 |
| 20260903043100 | 60 | 57 | 0.0 | 0.0 | 0.00 | 0.00 | 0.00 | 90 | 1016.1 |
| 20260903041605 | 60 | 75 | 0.0 | 0.0 | 0.00 | 0.00 | 0.00 | 89 | 1016.4 |
| 20260903040041 | 60 | 108 | 0.0 | 0.0 | 0.00 | 0.00 | 0.00 | 89 | 1016.9 |
| 20260903034518 | 60 | 108 | 0.0 | 0.0 | 0.00 | 0.00 | 0.00 | 89 | 1016.7 |
| 20260903033049 | 60 | 105 | 0.0 | 0.0 | 0.00 | 0.00 | 0.00 | 89 | 1016.7 |
| 20260903031546 | 60 | 63 | 0.0 | 0.0 | 0.00 | 0.00 | 0.00 | 90 | 1016.8 |
| 20260903030048 | 60 | 87 | 0.0 | 0.0 | 0.00 | 0.00 | 0.00 | 90 | 1016.9 |
| 20260903024546 | 61 | 74 | 0.0 | 0.0 | 0.00 | 0.00 | 0.00 | 91 | 1017.1 |
| 20260903023134 | 61 | 64 | 0.0 | 0.0 | 0.00 | 0.00 | 0.00 | 92 | 1017.2 |
| 20260903021601 | 61 | 84 | 0.0 | 0.0 | 0.00 | 0.00 | 0.00 | 92 | 1017.6 |
| 20260903020051 | 61 | 92 | 0.0 | 0.0 | 0.00 | 0.00 | 0.00 | 91 | 1017.6 |
| 20260903014613 | 61 | 89 | 0.0 | 0.0 | 0.00 | 0.00 | 0.00 | 91 | 1018.2 |
| 20260903013059 | 61 | 59 | 0.0 | 0.0 | 0.00 | 0.00 | 0.00 | 91 | 1018.3 |
| 20260903011525 | 61 | 65 | 0.0 | 0.0 | 0.00 | 0.00 | 0.00 | 91 | 1018.0 |
| 20260903010112 | 61 | 125 | 0.0 | 0.0 | 0.00 | 0.00 | 0.00 | 92 | 1018.0 |
| 20260903004608 | 61 | 30 | 0.0 | 0.0 | 0.00 | 0.00 | 0.00 | 92 | 1017.9 |
| 20260903003109 | 61 | 24 | 0.0 | 0.0 | 0.00 | 0.00 | 0.00 | 92 | 1017.7 |
| 20260903001547 | 61 | 85 | 0.0 | 0.0 | 0.00 | 0.00 | 0.00 | 91 | 1017.2 |
| 20260903000047 | 62 | 73 | 0.0 | 0.0 | 0.00 | 0.00 | 0.00 | 92 | 1017.5 |
| 20260902234511 | 62 | 73 | 0.0 | 0.0 | 0.00 | 0.00 | 0.00 | 91 | 1017.8 |
| 20260902233014 | 62 | 71 | 0.0 | 0.0 | 0.00 | 0.00 | 0.00 | 90 | 1017.9 |
| 20260902231558 | 62 | 71 | 0.0 | 0.0 | 0.00 | 0.00 | 0.00 | 90 | 1018.0 |
| 20260902230058 | 63 | 92 | 0.0 | 0.0 | 0.00 | 0.00 | 0.00 | 90 | 1018.6 |
| 20260902224539 | 63 | 121 | 0.0 | 0.0 | 0.00 | 0.00 | 0.00 | 89 | 1018.8 |
| 20260902223045 | 63 | 13 | 0.0 | 0.0 | 0.00 | 0.00 | 0.00 | 89 | 1019.1 |
| 20260902221537 | 63 | 86 | 0.0 | 0.0 | 0.00 | 0.00 | 0.00 | 89 | 1019.3 |
| 20260902220003 | 63 | 89 | 0.0 | 0.0 | 0.00 | 0.00 | 0.00 | 89 | 1019.2 |
| 20260902214518 | 63 | 89 | 0.0 | 0.0 | 0.00 | 0.00 | 0.00 | 89 | 1019.4 |
| 20260902213104 | 63 | 63 | 0.0 | 0.0 | 0.00 | 0.00 | 0.00 | 90 | 1019.2 |
| 20260902211547 | 63 | 68 | 0.0 | 0.0 | 0.00 | 0.00 | 0.00 | 90 | 1019.3 |
| 20260902210032 | 63 | 107 | 0.0 | 0.0 | 0.00 | 0.00 | 0.00 | 89 | 1019.1 |
| 20260902204553 | 63 | 96 | 0.0 | 0.0 | 0.00 | 0.00 | 0.00 | 89 | 1019.2 |
| 20260902203055 | 63 | 95 | 0.0 | 0.0 | 0.00 | 0.00 | 0.00 | 89 | 1019.4 |
| 20260902201547 | 63 | 125 | 0.0 | 0.0 | 0.00 | 0.00 | 0.00 | 89 | 1019.1 |
| 20260902200044 | 63 | 107 | 0.0 | 0.0 | 0.00 | 0.00 | 0.00 | 88 | 1019.4 |
| 20260902194536 | 63 | 104 | 0.0 | 0.0 | 0.00 | 0.00 | 0.00 | 88 | 1019.8 |
| 20260902193038 | 63 | 90 | 0.0 | 0.0 | 0.00 | 0.00 | 0.00 | 88 | 1019.8 |
| 20260902191539 | 63 | 114 | 0.0 | 0.0 | 0.00 | 0.00 | 0.00 | 88 | 1019.9 |
| 20260902190052 | 63 | 87 | 0.0 | 0.0 | 0.00 | 0.00 | 0.00 | 89 | 1020.0 |
| 20260902184551 | 62 | 94 | 0.0 | 0.0 | 0.00 | 0.01 | 0.00 | 89 | 1020.0 |
| 20260902183036 | 62 | 82 | 0.0 | 0.0 | 0.00 | 0.01 | 0.00 | 89 | 1020.4 |
| 20260902181530 | 62 | 149 | 0.0 | 0.0 | 0.00 | 0.01 | 0.00 | 89 | 1020.4 |
| 20260902180057 | 63 | 55 | 0.0 | 0.0 | 0.00 | 0.01 | 0.00 | 88 | 1020.0 |
| 20260902174544 | 63 | 130 | 0.0 | 0.0 | 0.00 | 0.03 | 0.00 | 88 | 1020.3 |
| 20260902173039 | 63 | 82 | 0.0 | 0.0 | 0.00 | 0.03 | 0.00 | 88 | 1020.3 |
| 20260902171552 | 63 | 139 | 0.0 | 0.0 | 0.00 | 0.03 | 0.00 | 88 | 1020.4 |
| 20260902170041 | 62 | 86 | 0.0 | 0.0 | 0.00 | 0.03 | 0.00 | 87 | 1020.4 |
| 20260902164547 | 62 | 109 | 0.0 | 0.0 | 0.00 | 0.03 | 0.00 | 85 | 1020.7 |
| 20260902163043 | 62 | 244 | 0.0 | 0.0 | 0.00 | 0.03 | 0.00 | 85 | 1020.7 |
| 20260902161510 | 62 | 78 | 0.0 | 0.0 | 0.00 | 0.03 | 0.00 | 85 | 1020.7 |
| 20260902160116 | 61 | 232 | 0.0 | 0.0 | 0.00 | 0.03 | 0.00 | 87 | 1020.9 |
| 20260902154543 | 61 | 143 | 0.0 | 0.0 | 0.00 | 0.11 | 0.00 | 87 | 1021.0 |
| 20260902153044 | 61 | 117 | 0.0 | 0.0 | 0.00 | 0.11 | 0.00 | 89 | 1021.2 |
| 20260902151505 | 60 | 41 | 0.0 | 0.0 | 0.00 | 0.11 | 0.00 | 90 | 1021.3 |
| 20260902150053 | 60 | 83 | 0.0 | 0.0 | 0.00 | 0.11 | 0.00 | 89 | 1021.6 |
| 20260902144550 | 60 | 74 | 0.0 | 0.0 | 0.00 | 0.11 | 0.00 | 91 | 1021.6 |
| 20260902143027 | 59 | 208 | 0.0 | 0.0 | 0.00 | 0.11 | 0.00 | 91 | 1021.6 |
| 20260902141503 | 59 | 128 | 0.0 | 0.0 | 0.00 | 0.11 | 0.00 | 92 | 1021.3 |
| 20260902140047 | 59 | 134 | 0.0 | 0.0 | 0.00 | 0.11 | 0.00 | 93 | 1021.2 |
| 20260902134539 | 59 | 121 | 0.0 | 0.0 | 0.00 | 0.11 | 0.00 | 92 | 1021.3 |
| 20260902133005 | 59 | 121 | 0.0 | 0.0 | 0.00 | 0.11 | 0.00 | 92 | 1021.0 |
| 20260902131543 | 59 | 121 | 0.0 | 0.0 | 0.00 | 0.11 | 0.00 | 92 | 1020.7 |
| 20260902130045 | 59 | 85 | 0.0 | 0.0 | 0.00 | 0.11 | 0.00 | 92 | 1020.8 |
| 20260902124539 | 58 | 83 | 0.0 | 0.0 | 0.00 | 0.11 | 0.00 | 93 | 1020.8 |
| 20260902123022 | 58 | 83 | 0.0 | 0.0 | 0.00 | 0.11 | 0.00 | 95 | 1020.7 |
| 20260902121527 | 58 | 83 | 0.0 | 0.0 | 0.00 | 0.11 | 0.00 | 96 | 1020.7 |
| 20260902120049 | 58 | 88 | 0.0 | 0.0 | 0.00 | 0.11 | 0.00 | 97 | 1020.6 |
| 20260902114525 | 58 | 88 | 0.0 | 0.0 | 0.00 | 0.20 | 0.00 | 97 | 1020.6 |
| 20260902113008 | 57 | 88 | 0.0 | 0.0 | 0.00 | 0.20 | 0.00 | 97 | 1020.8 |
| 20260902111556 | 57 | 88 | 0.0 | 0.0 | 0.00 | 0.20 | 0.00 | 97 | 1021.0 |
| 20260902110052 | 57 | 88 | 0.0 | 0.0 | 0.00 | 0.20 | 0.00 | 97 | 1020.9 |
| 20260902104607 | 57 | 88 | 0.0 | 0.0 | 0.00 | 0.27 | 0.00 | 97 | 1020.6 |
| 20260902103010 | 57 | 88 | 0.0 | 0.0 | 0.00 | 0.27 | 0.00 | 97 | 1020.5 |
| 20260902101503 | 57 | 88 | 0.0 | 0.0 | 0.00 | 0.27 | 0.00 | 97 | 1020.5 |
| 20260902100133 | 57 | 88 | 0.0 | 0.0 | 0.00 | 0.27 | 0.00 | 97 | 1020.2 |
| 20260902094503 | 57 | 88 | 0.0 | 0.0 | 0.00 | 0.27 | 0.00 | 97 | 1020.0 |
| 20260902093100 | 57 | 88 | 0.0 | 0.0 | 0.00 | 0.27 | 0.00 | 97 | 1019.9 |
| 20260902091539 | 57 | 88 | 0.0 | 0.0 | 0.00 | 0.27 | 0.00 | 97 | 1019.7 |
| 20260902090005 | 57 | 88 | 0.0 | 0.0 | 0.00 | 0.27 | 0.00 | 97 | 1019.7 |
| 20260902084604 | 57 | 88 | 0.0 | 0.0 | 0.00 | 0.27 | 0.00 | 97 | 1019.3 |
| 20260902083039 | 57 | 88 | 0.0 | 0.0 | 0.00 | 0.27 | 0.00 | 97 | 1019.4 |
| 20260902081509 | 57 | 88 | 0.0 | 0.0 | 0.00 | 0.27 | 0.00 | 97 | 1019.3 |
| 20260902080027 | 57 | 88 | 0.0 | 0.0 | 0.00 | 0.27 | 0.00 | 97 | 1019.3 |
| 20260902074525 | 57 | 88 | 0.0 | 0.0 | 0.00 | 0.27 | 0.00 | 97 | 1019.6 |
| 20260902073013 | 57 | 88 | 0.0 | 0.0 | 0.00 | 0.27 | 0.00 | 97 | 1019.7 |
| 20260902071630 | 57 | 88 | 0.0 | 0.0 | 0.00 | 0.27 | 0.00 | 97 | 1019.5 |
| 20260902070105 | 57 | 88 | 0.0 | 0.0 | 0.00 | 0.27 | 0.00 | 97 | 1019.3 |